Regional Weather Roundup
Issued by NWS

Home | Current Version | Previous Version | Text Only | Print | Product List | Glossary On
Versions: 1 2 3 4 5 6 7 8 9 10 11 12 13 14 15 16 17 18 19 20 21 22 23 24 25 26 27 28 29 30 31 32 33 34 35 36 37 38 39 40 41 42 43 44 45 46 47 48 49 50
000
ASUS43 KOAX 010702
RWRNE

WEATHER ROUNDUP FOR NEBRASKA
NATIONAL WEATHER SERVICE OMAHA NE
200 AM CDT WED JUL 01 2015

NOTES: SATELLITE DATA IS BEING USED TO AUGMENT CLOUD COVER ABOVE
       12000 FEET.
       "FAIR" INDICATES FEW OR NO CLOUDS BELOW 12,000 FEET WITH NO
       SIGNIFICANT WEATHER AND/OR OBSTRUCTIONS TO VISIBILITY.

  * THESE STATIONS DO NOT REPORT WEATHER SUCH AS RAIN...SNOW OR FOG.

NEZ001>004-019>022-054>056-010800-
NEBRASKA PANHANDLE

CITY           SKY/WX    TMP DP  RH WIND       PRES   REMARKS
SCOTTSBLUFF    PTCLDY    69  58  67 NW10      30.01F
ALLIANCE       PTCLDY    68  64  87 W9        29.99R
CHADRON        PTCLDY    66  64  93 SW9       29.93F
KIMBALL          N/A    N/A N/A N/A MISG        N/A
SIDNEY         CLOUDY    69  58  67 NW10      30.03F
$$

NEZ057>060-069>072-079>082-010800-
SOUTHWEST NEBRASKA

CITY           SKY/WX    TMP DP  RH WIND       PRES   REMARKS
NORTH PLATTE   PTCLDY    70  66  87 E9        29.86F
IMPERIAL       CLOUDY    76  56  49 W8        29.88F
MCCOOK         MOCLDY    79  54  41 W7        29.82F
$$

NEZ005>010-023>029-035>040-094-010800-
NORTH CENTRAL NEBRASKA

CITY           SKY/WX    TMP DP  RH WIND       PRES   REMARKS
VALENTINE      CLEAR     64  61  90 S5        29.90S
AINSWORTH      PTCLDY    65  62  87 SE6       29.90S
BROKEN BOW     CLEAR     66  62  87 E7        29.89S
ORD            MOCLDY    68  61  78 SE8       29.86F
$$

NEZ041-046>049-061>064-073>077-083>087-010800-
SOUTH CENTRAL NEBRASKA

CITY           SKY/WX    TMP DP  RH WIND       PRES   REMARKS
GRAND ISLAND   MOCLDY    71  60  68 E18       29.86F
HASTINGS       CLOUDY    70  63  78 E14G23    29.86F
KEARNEY *      MOCLDY    70  63  78 E17       29.87R
$$

NEZ011>018-030>034-042>045-010800-
NORTHEAST NEBRASKA

CITY           SKY/WX    TMP DP  RH WIND       PRES   REMARKS
NORFOLK        CLOUDY    66  64  93 E8        29.87F
COLUMBUS *     CLOUDY   N/A N/A N/A SE12      29.85F
FREMONT        CLOUDY    69  65  89 E5        29.88F
TEKAMAH        CLOUDY    69  67  93 SE6       29.89F FOG
$$

NEZ050>053-065>068-078-088>093-010800-
SOUTHEAST NEBRASKA

CITY           SKY/WX    TMP DP  RH WIND       PRES   REMARKS
LINCOLN        LGT RAIN  69  66  90 SE16G33   29.89F FOG
OMAHA EPPLEY   CLOUDY    69  66  90 SE12      29.88F
FALLS CITY     HVY RAIN  71  65  81 NE9       29.89R
$$

NEZ044-045-051>053-067-010800-
OMAHA AREA

CITY           SKY/WX    TMP DP  RH WIND       PRES   REMARKS
OMAHA EPPLEY   CLOUDY    69  66  90 SE12      29.88F
FREMONT        CLOUDY    69  65  89 E5        29.88F
OFFUTT AFB     CLOUDY    68  66  93 SE8       29.87F
$$


USA.gov is the U.S. government's official web portal to all federal, state and local government web resources and services.